sat.trackr.live / text

‹ back to catalog

STARLINK-32941

NORAD 63119 · 2025-039R

PAYLOAD ACTIVE UNKNOWN

§ Identity

Operator
Country
US
Launch date
2025-02-27
Launch site
AFETR
Launch vehicle
Mass (kg)
RCS (m²)

Purposes: comms

External: N2YO · Heavens-Above · Gunter

§ Orbital elements

Epoch: 2026-09-20T21:42:32.425344Z

Period
94.27 min
Inclination
43.0008°
Eccentricity
0.0002361
Mean motion
15.27598004 rev/d
Perigee alt
481.4 km
Apogee alt
484.6 km
Semi-major
6,861.1 km
B*
5.2254e-4
RAAN
338.9390°
Arg perigee
280.9220°
Mean anomaly
79.1366°
Rev number
8,805

§ Raw data

STARLINK-329411 63119U 25039R   26263.90454196  .00014153  00000+0  52254-3 0  99902 63119  43.0008 338.9390 0002361 280.9220  79.1366 15.27598004 88051

JSON: /api/v1/satellites/63119 · /tle

For live sub-satellite position, see the globe view (requires WebGL).

§ Visibility from observer

Set your observer location to see the next 7 days of passes ≥ 10°. The values pass through the URL so the page stays shareable.

No JS? Fill the form by hand. The geolocation button needs JavaScript.